Location: Unspecified
(52.4292°N, 19.3359°E)
Time: 01:01:26
(UTC+02:00)

Vanguard 1 Rocket - Pass Details

Date: 22 May 2024
Orbit: 649 x 4221 km, 34.3° (Epoch: 13 June)

Event Time Altitude Azimuth Distance (km) Brightness Sun altitude
Rises 11:28:23 0° 242° (WSW) 7,649 12.1 55.3°
Reaches altitude 10° 11:34:59 10° 235° (SW) 6,080 11.8 55.7°
Maximum altitude 11:48:34 31° 182° (S) 3,208 11.4 56.6°
Drops below altitude 10° 11:56:39 10° 125° (SE) 3,567 11.0 57.0°
Sets 11:59:23 0° 114° (ESE) 4,189 11.1 57.2°
